Weather History for K21D - October, 2013

Change the Weather History Date:

Tuesday, October 15, 2013

  Actual Average (WUND) Record (WUND)
Temperature  
Mean Temperature 50 °F -  
Max Temperature 53 °F - - (-1)
Min Temperature 46 °F - - (-1)
Degree Days  
Heating Degree Days 16    
Moisture  
Dew Point 48 °F    
Average Humidity 95    
Maximum Humidity 100    
Minimum Humidity 87    
Precipitation  
Precipitation 0.52 in - - ()
Sea Level Pressure  
Sea Level Pressure 29.76 in    
Wind  
Wind Speed 9 mph (SSE)    
Max Wind Speed 15 mph    
Max Gust Speed 23 mph    
Visibility 6 miles    
Events Rain    
Averages and records for this station are not official NWS values.
T = Trace of Precipitation, MM = Missing Value Source: NWS Daily Summary

Daily Weather History Graph

Daily Weather History Graph

Search for Another Location

Airport or City:

Trip Planner

Search our weather history database for the weather conditions in past years. The results will help you decide how hot, cold, wet, or windy it might be!

Date:

Astronomy

Oct. 15, 2013 Rise Set
Actual Time 7:27 AM CDT 6:26 PM CDT
Civil Twilight 6:57 AM CDT 6:55 PM CDT
Nautical Twilight 6:23 AM CDT 7:29 PM CDT
Astronomical Twilight 5:49 AM CDT 8:03 PM CDT
Moon 4:38 PM CDT (10/15) 3:42 AM CDT (10/15)
Length of Visible Light 11h 57m
Length of Day
10h 58m
Waxing Gibbous, 88% of the Moon is Illuminated
Oct 15
Waxing Gibbous
Oct 18
Full
Oct 26
Last Quarter
Nov 3
New
Nov 9
First Quarter

Hourly Weather History & Observations

Time (CDT) Temp. Windchill Dew Point Humidity Pressure Visibility Wind Dir Wind Speed Gust Speed Precip Events Conditions
12:12 AM 48.2 °F - 46.4 °F 93% 29.99 in 7.0 mi East 9.2 mph - 0.05 in Rain Rain
12:32 AM 48.2 °F - 46.4 °F 93% 29.97 in 5.0 mi East 10.4 mph 16.1 mph 0.13 in Rain Light Rain
12:51 AM 48.2 °F - 46.4 °F 93% 29.98 in 7.0 mi East 6.9 mph - 0.20 in Rain Rain
1:12 AM 48.2 °F - 46.4 °F 93% 29.95 in 7.0 mi East 11.5 mph - 0.03 in Rain Light Rain
1:32 AM 48.2 °F - 46.4 °F 93% 29.94 in 7.0 mi East 13.8 mph 21.9 mph 0.06 in Rain Light Rain
1:51 AM 46.4 °F 41.9 °F 46.4 °F 100% 29.93 in 7.0 mi East 9.2 mph 18.4 mph 0.12 in Rain Rain
2:12 AM 46.4 °F 41.5 °F 46.4 °F 100% 29.93 in 5.0 mi East 10.4 mph - 0.05 in Rain Rain
2:32 AM 46.4 °F 40.4 °F 46.4 °F 100% 29.92 in 7.0 mi East 13.8 mph 19.6 mph 0.11 in Rain Rain
2:52 AM 46.4 °F 40.1 °F 46.4 °F 100% 29.89 in 5.0 mi East 15.0 mph 18.4 mph 0.18 in Rain Rain
3:12 AM 46.4 °F 41.5 °F 44.6 °F 93% 29.86 in 7.0 mi ESE 10.4 mph 23.0 mph 0.01 in Rain Light Rain
3:31 AM 46.4 °F 40.1 °F 44.6 °F 93% 29.85 in 10.0 mi ESE 15.0 mph 20.7 mph 0.01 in   Drizzle
3:52 AM 46.4 °F 41.1 °F 46.4 °F 100% 29.85 in 10.0 mi ESE 11.5 mph 19.6 mph 0.01 in Rain Light Rain
4:12 AM 46.4 °F 41.1 °F 46.4 °F 100% 29.82 in 10.0 mi ESE 11.5 mph 21.9 mph N/A   Light Drizzle
4:31 AM 46.4 °F 40.7 °F 46.4 °F 100% 29.80 in 10.0 mi ESE 12.7 mph 17.3 mph N/A   Overcast
4:52 AM 48.2 °F - 46.4 °F 93% 29.81 in 10.0 mi ESE 11.5 mph 17.3 mph N/A Rain Rain
5:12 AM 48.2 °F - 46.4 °F 93% 29.79 in 10.0 mi East 9.2 mph 18.4 mph N/A Rain Light Rain
5:31 AM 48.2 °F - 46.4 °F 93% 29.78 in 10.0 mi ESE 9.2 mph - N/A   Overcast
5:52 AM 48.2 °F - 46.4 °F 93% 29.77 in 10.0 mi ESE 9.2 mph - N/A   Overcast
6:11 AM 48.2 °F - 46.4 °F 93% 29.75 in 5.0 mi East 8.1 mph 17.3 mph N/A   Overcast
6:32 AM 48.2 °F - 46.4 °F 93% 29.75 in 5.0 mi ESE 8.1 mph - N/A   Overcast
6:52 AM 48.2 °F - 46.4 °F 93% 29.74 in 5.0 mi East 8.1 mph - N/A   Overcast
7:12 AM 50.0 °F - 48.2 °F 94% 29.74 in 10.0 mi SE 5.8 mph - N/A   Overcast
7:32 AM 50.0 °F - 48.2 °F 94% 29.74 in 10.0 mi SE 5.8 mph - N/A   Overcast
7:52 AM 50.0 °F - 50.0 °F 100% 29.73 in 7.0 mi SE 9.2 mph - N/A   Overcast
8:12 AM 50.0 °F - 50.0 °F 100% 29.72 in 7.0 mi ESE 10.4 mph - N/A   Overcast
8:32 AM 51.8 °F - 50.0 °F 94% 29.72 in 4.0 mi SE 9.2 mph - N/A Rain Light Rain
8:51 AM 51.8 °F - 50.0 °F 94% 29.72 in 7.0 mi ESE 6.9 mph - N/A   Overcast
9:12 AM 51.8 °F - 50.0 °F 94% 29.71 in 3.0 mi ESE 8.1 mph - N/A Rain Light Rain
9:32 AM 51.8 °F - 51.8 °F 100% 29.71 in 4.0 mi ESE 9.2 mph 16.1 mph N/A   Overcast
9:51 AM 53.6 °F - 51.8 °F 94% 29.70 in 5.0 mi ESE 6.9 mph - N/A   Overcast
10:12 AM 53.6 °F - 51.8 °F 94% 29.70 in 5.0 mi ESE 5.8 mph - N/A   Overcast
10:32 AM 53.6 °F - 51.8 °F 94% 29.70 in 5.0 mi SE 6.9 mph - N/A   Overcast
10:51 AM 53.6 °F - 51.8 °F 94% 29.70 in 7.0 mi East 5.8 mph - N/A   Overcast
11:12 AM 53.6 °F - 51.8 °F 94% 29.70 in 5.0 mi ESE 4.6 mph - N/A   Overcast
11:32 AM 53.6 °F - 51.8 °F 94% 29.70 in 7.0 mi SSE 5.8 mph - N/A   Light Drizzle
11:51 AM 53.6 °F - 51.8 °F 94% 29.70 in 10.0 mi SSW 10.4 mph - N/A   Overcast
12:12 PM 53.6 °F - 51.8 °F 94% 29.70 in 7.0 mi South 9.2 mph - N/A   Overcast
12:32 PM 53.6 °F - 51.8 °F 94% 29.70 in 10.0 mi SSW 11.5 mph - N/A   Overcast
12:52 PM 51.8 °F - 50.0 °F 94% 29.70 in 2.5 mi SSW 15.0 mph - N/A   Overcast
1:12 PM 51.8 °F - 50.0 °F 94% 29.70 in 1.8 mi SSW 10.4 mph - N/A   Drizzle
1:31 PM 51.8 °F - 50.0 °F 94% 29.69 in 3.0 mi SSW 11.5 mph - N/A   Overcast
1:52 PM 51.8 °F - 50.0 °F 94% 29.69 in 1.8 mi SSW 10.4 mph - N/A Rain Rain
2:12 PM 50.0 °F - 50.0 °F 100% 29.70 in 2.0 mi SSW 8.1 mph - N/A   Drizzle
2:31 PM 50.0 °F - 50.0 °F 100% 29.70 in 2.5 mi SSW 8.1 mph - N/A   Heavy Drizzle
2:52 PM 50.0 °F - 48.2 °F 94% 29.70 in 4.0 mi SW 9.2 mph - 0.01 in   Drizzle
3:12 PM 50.0 °F - 48.2 °F 94% 29.70 in 4.0 mi SSW 8.1 mph - N/A   Light Drizzle
3:31 PM 50.0 °F - 48.2 °F 94% 29.70 in 7.0 mi SSW 10.4 mph - N/A   Overcast
3:52 PM 50.0 °F - 48.2 °F 94% 29.70 in 10.0 mi SW 10.4 mph - N/A   Overcast
4:12 PM 50.0 °F - 46.4 °F 87% 29.71 in 10.0 mi SW 9.2 mph - N/A   Overcast
4:31 PM 50.0 °F - 48.2 °F 94% 29.71 in 10.0 mi SSW 6.9 mph - N/A   Overcast
4:52 PM 50.0 °F - 46.4 °F 87% 29.71 in 10.0 mi SSW 6.9 mph - N/A   Overcast
5:12 PM 50.0 °F - 46.4 °F 87% 29.71 in 10.0 mi SW 5.8 mph - N/A   Overcast
5:31 PM 50.0 °F - 46.4 °F 87% 29.71 in 10.0 mi SSW 6.9 mph - N/A   Overcast
5:52 PM 50.0 °F - 46.4 °F 87% 29.71 in 5.0 mi SSW 6.9 mph - N/A   Overcast
6:12 PM 48.2 °F - 46.4 °F 93% 29.72 in 5.0 mi SSW 8.1 mph - N/A   Overcast
6:31 PM 48.2 °F - 46.4 °F 93% 29.72 in 2.0 mi SW 4.6 mph - N/A   Drizzle
6:52 PM 48.2 °F - 46.4 °F 93% 29.72 in 2.5 mi SSW 3.5 mph - N/A   Light Drizzle
7:12 PM 48.2 °F - 48.2 °F 100% 29.72 in 2.5 mi SSW 4.6 mph - N/A   Light Drizzle
7:31 PM 48.2 °F - 46.4 °F 93% 29.73 in 3.0 mi SW 6.9 mph - N/A   Overcast
7:52 PM 48.2 °F - 48.2 °F 100% 29.74 in 1.8 mi SW 5.8 mph - N/A   Overcast
8:12 PM 48.2 °F - 48.2 °F 100% 29.74 in 2.5 mi WSW 4.6 mph - N/A   Overcast
8:31 PM 48.2 °F - 48.2 °F 100% 29.74 in 2.5 mi WSW 6.9 mph - N/A   Drizzle
8:52 PM 50.0 °F - 48.2 °F 94% 29.75 in 2.5 mi NNW 4.6 mph - N/A   Drizzle
9:12 PM 50.0 °F - 48.2 °F 94% 29.75 in 10.0 mi NNW 9.2 mph - N/A   Overcast
9:32 PM 50.0 °F - 48.2 °F 94% 29.76 in 10.0 mi North 10.4 mph 17.3 mph N/A   Overcast
9:52 PM 48.2 °F - 46.4 °F 93% 29.77 in 7.0 mi North 13.8 mph 20.7 mph N/A   Overcast
10:12 PM 48.2 °F - 46.4 °F 93% 29.78 in 7.0 mi North 12.7 mph 18.4 mph N/A   Overcast
10:32 PM 48.2 °F - 46.4 °F 93% 29.78 in 7.0 mi North 11.5 mph - N/A   Overcast
10:52 PM 46.4 °F 41.1 °F 46.4 °F 100% 29.79 in 7.0 mi North 11.5 mph 16.1 mph N/A   Overcast
11:11 PM 46.4 °F 41.5 °F 44.6 °F 93% 29.80 in 10.0 mi North 10.4 mph 19.6 mph N/A   Overcast
11:32 PM 46.4 °F 41.1 °F 44.6 °F 93% 29.80 in 10.0 mi North 11.5 mph 17.3 mph N/A   Overcast
11:52 PM 46.4 °F 40.7 °F 44.6 °F 93% 29.81 in 10.0 mi North 12.7 mph 16.1 mph N/A   Overcast